Wichita Jabara, KS

1:20 AM CDT on September 18, 2019 (GMT -0500)
Col Jabara

Weather History for KAAO - August, 2019

Change the Weather History Date:

Sunday, August 25, 2019

  Actual Average (KIAB) Record (KIAB)
Temperature  
Mean Temperature 70 °F -  
Max Temperature 81 °F 89 °F 102 °F (2003)
Min Temperature 62 °F 67 °F 56 °F (2010)
Cooling Degree Days 6    
Growing Degree Days 20 (Base 50)    
Moisture  
Dew Point 66 °F    
Average Humidity 93    
Maximum Humidity 100    
Minimum Humidity 69    
Precipitation  
Precipitation 1.53 in - - ()
Sea Level Pressure  
Sea Level Pressure 29.87 in    
Wind  
Wind Speed 9 mph ()    
Max Wind Speed 29 mph    
Max Gust Speed 38 mph    
Visibility 7.9 miles    
Events Rain , Thunderstorm    
Averages and records for this station are not official NWS values.
T = Trace of Precipitation, MM = Missing Value Source: Averaged Metar Reports

Daily Weather History Graph

Daily Weather History Graph

Search for Another Location

Airport or City:

Astronomy

Aug. 25, 2019 Rise Set
Actual Time 6:52 AM CDT 8:08 PM CDT
Civil Twilight 6:25 AM CDT 8:35 PM CDT
Nautical Twilight 5:52 AM CDT 9:08 PM CDT
Astronomical Twilight 5:18 AM CDT 9:42 PM CDT
Moon 1:32 AM CDT (8/25) 4:27 PM CDT (8/25)
Length of Visible Light 14h 10m
Length of Day
13h 15m
Waning Crescent, 29% of the Moon is Illuminated
Aug 25
Waning Crescent
Aug 30
New
Sep 5
First Quarter
Sep 13
Full
Sep 21
Last Quarter

Hourly Weather History & Observations

Time (CDT) Temp. Dew Point Humidity Pressure Visibility Wind Dir Wind Speed Gust Speed Precip Events Conditions
12:41 AM 71.1 °F 69.1 °F 93% 29.94 in 10.0 mi ESE 8.1 mph - N/A Thunderstorm Overcast
12:51 AM 71.6 °F 69.8 °F 94% 29.93 in 10.0 mi ESE 13.8 mph - 0.00 in Rain , Thunderstorm Light Thunderstorms and Rain
12:54 AM 71.1 °F 69.1 °F 93% 29.89 in 7.0 mi ESE 13.8 mph 19.6 mph 0.04 in Rain , Thunderstorm Light Thunderstorms and Rain
1:28 AM 71.1 °F 70.0 °F 96% 29.92 in 9.0 mi SE 12.7 mph 21.9 mph 0.11 in Thunderstorm Overcast
1:38 AM 71.1 °F 70.0 °F 96% 29.91 in 10.0 mi ESE 11.5 mph 20.7 mph 0.11 in   Overcast
1:54 AM 71.1 °F 70.0 °F 96% 29.87 in 9.0 mi ESE 9.2 mph - 0.11 in   Overcast
2:49 AM 71.6 °F 69.8 °F 94% 29.97 in 9.0 mi WNW 24.2 mph 35.7 mph N/A Thunderstorm Overcast
2:50 AM 70.0 °F 69.1 °F 97% 29.94 in 9.0 mi NW 28.8 mph 38.0 mph N/A Thunderstorm Overcast
3:01 AM 64.0 °F 63.0 °F 96% 29.98 in 1.8 mi NW 18.4 mph 34.5 mph 0.13 in Rain , Thunderstorm Heavy Rain
3:08 AM 63.0 °F 62.1 °F 97% 29.98 in 0.8 mi WNW 12.7 mph 24.2 mph 0.42 in Rain , Thunderstorm Heavy Thunderstorms and Rain
3:26 AM 63.0 °F 62.1 °F 97% 29.95 in 2.0 mi NNW 4.6 mph - 0.84 in Rain , Thunderstorm Heavy Thunderstorms and Rain
3:41 AM 63.0 °F 62.1 °F 97% 29.94 in 3.0 mi Calm Calm - 0.90 in Rain , Thunderstorm Heavy Thunderstorms and Rain
3:54 AM 63.0 °F 62.1 °F 97% 29.88 in 5.0 mi East 6.9 mph - 0.94 in Rain , Thunderstorm Thunderstorms and Rain
4:37 AM 63.0 °F 62.1 °F 97% 29.88 in 9.0 mi East 5.8 mph - 0.05 in Rain Light Rain
4:46 AM 63.0 °F 62.1 °F 97% 29.89 in 10.0 mi East 4.6 mph - 0.05 in Rain , Thunderstorm Light Rain
4:54 AM 63.0 °F 62.1 °F 97% 29.86 in 10.0 mi Variable 3.5 mph - 0.06 in Rain , Thunderstorm Light Rain
5:01 AM 63.0 °F 62.1 °F 97% 29.89 in 9.0 mi ESE 5.8 mph - 0.01 in Rain Rain
5:26 AM 63.0 °F 63.0 °F 100% 29.90 in 5.0 mi SSE 6.9 mph - 0.09 in Rain , Thunderstorm Heavy Thunderstorms and Rain
5:41 AM 63.0 °F 63.0 °F 100% 29.92 in 6.0 mi SSW 11.5 mph - 0.11 in Rain Rain
5:54 AM 63.0 °F 63.0 °F 100% 29.88 in 4.0 mi South 13.8 mph - 0.16 in Rain Heavy Rain
6:16 AM 63.0 °F 63.0 °F 100% 29.90 in 7.0 mi South 9.2 mph - 0.04 in Rain , Thunderstorm Rain
6:31 AM 63.0 °F 63.0 °F 100% 29.91 in 7.0 mi South 9.2 mph - 0.07 in Rain Rain
6:39 AM 63.0 °F 63.0 °F 100% 29.91 in 6.0 mi South 10.4 mph - 0.09 in Rain , Thunderstorm Thunderstorms and Rain
6:48 AM 62.6 °F 62.6 °F 100% 29.89 in 6.0 mi South 9.2 mph - 0.12 in Rain Rain
6:49 AM 63.0 °F 63.0 °F 100% 29.86 in 6.0 mi South 8.1 mph - 0.13 in Rain Rain
7:54 AM 63.0 °F 63.0 °F 100% 29.84 in 10.0 mi South 11.5 mph - 0.06 in Rain Light Rain
8:54 AM 64.0 °F 63.0 °F 96% 29.84 in 10.0 mi SSW 10.4 mph - 0.03 in   Mostly Cloudy
8:59 AM 64.0 °F 63.0 °F 96% 29.86 in 10.0 mi South 11.5 mph - N/A   Mostly Cloudy
3:54 PM 79.0 °F 70.0 °F 74% 29.79 in 10.0 mi SSW 9.2 mph - N/A   Scattered Clouds
4:54 PM 78.1 °F 68.0 °F 71% 29.77 in 10.0 mi Calm Calm - N/A   Clear
5:54 PM 79.0 °F 68.0 °F 69% 29.75 in 10.0 mi Calm Calm - N/A   Clear
6:54 PM 78.1 °F 68.0 °F 71% 29.77 in 10.0 mi East 4.6 mph - N/A   Clear
7:54 PM 75.0 °F 70.0 °F 84% 29.78 in 10.0 mi East 5.8 mph - N/A   Clear
8:54 PM 72.0 °F 69.1 °F 91% 29.78 in 10.0 mi East 5.8 mph - N/A   Clear
9:54 PM 73.0 °F 69.1 °F 87% 29.79 in 10.0 mi ESE 8.1 mph - N/A   Clear
10:54 PM 71.1 °F 69.1 °F 93% 29.79 in 10.0 mi ESE 6.9 mph - N/A   Clear
11:54 PM 70.0 °F 68.0 °F 93% 29.78 in 10.0 mi ESE 6.9 mph - N/A   Clear